Location: Stockholm
(59.3330°N, 18.0500°E)
Time: 10:00:29
(UTC+01:00)

FENGYUN 1C DEB - Pass Details

Date: 09 December 2023
Orbit: 841 x 915 km, 98.8° (Epoch: 21 February)

Event Time Altitude Azimuth Distance (km) Brightness Sun altitude
Exits shadow 18:51:24 18° 4° (N) 1,990 ? -28.5°
Drops below altitude 10° 18:53:00 10° 353° (N) 2,482 ? -28.7°
Sets 18:55:39 0° 342° (NNW) 3,427 ? -29.1°
